Location: Devore Heights
(34.2372°N, 117.4156°W)
Time: 19:37:16
(UTC+00:00)

S-56A Canister/Altair - Pass Details

Date: 21 September 2024
Orbit: 636 x 2487 km, 38.9° (Epoch: 14 October)

Event Time Altitude Azimuth Distance (km) Brightness Sun altitude
Rises 04:35:07 0° 290° (WNW) 3,454 11.9 -34.0°
Reaches altitude 10° 04:37:16 10° 290° (WNW) 2,678 11.1 -34.4°
Enters shadow 04:42:53 73° 302° (WNW) 1,255 8.5 -35.5°
Maximum altitude 04:43:46 86° 21° (NNE) 1,252 - -35.6°
Drops below altitude 10° 04:53:50 10° 110° (ESE) 4,037 - -37.4°
Sets 04:57:48 0° 111° (ESE) 5,314 - -38.1°
